GW3642 Weather Reports


time (UTC)temp
C
wind
direction
speed
KPH
gust
KPH
rain 1hr
cm
rain 24hr
cm
rain mn
cm
humidity
%
barometer
mb
20260506215007 12 293 6.4 12.9 0.00 2.54 0.84 52 1011.3
20260506214504 12 327 3.2 11.3 0.00 2.57 0.84 54 1011.2
20260506214004 12 311 4.8 12.9 0.00 2.57 0.84 53 1011.2
20260506213503 12 319 6.4 19.3 0.00 2.62 0.84 51 1011.1
20260506213003 12 311 9.7 19.3 0.00 2.64 0.84 51 1011.1
20260506212503 12 306 6.4 14.5 0.00 2.67 0.84 51 1011.2
20260506212003 12 330 8.0 14.5 0.00 2.74 0.84 51 1011.0
20260506211509 12 309 4.8 9.7 0.00 2.90 0.84 53 1011.0
20260506211003 12 281 4.8 9.7 0.00 3.02 0.84 51 1011.0
20260506210503 12 349 3.2 8.0 0.00 3.07 0.84 53 1011.1
20260506210015 12 268 4.8 12.9 0.00 3.07 0.84 53 1011.1
20260506205508 12 318 3.2 14.5 0.00 3.07 0.84 52 1011.1
20260506205007 12 65 6.4 14.5 0.00 3.07 0.84 51 1010.9
20260506204520 12 302 6.4 14.5 0.00 3.07 0.84 51 1010.9
20260506204012 12 300 6.4 14.5 0.00 3.07 0.84 51 1010.8
20260506203507 12 280 4.8 17.7 0.00 3.07 0.84 51 1010.7
20260506203023 12 44 6.4 17.7 0.00 3.07 0.84 50 1010.7
20260506202503 12 314 4.8 11.3 0.00 3.07 0.84 52 1010.7
20260506202005 12 250 4.8 11.3 0.00 3.07 0.84 52 1010.7
20260506201508 12 357 3.2 11.3 0.00 3.07 0.84 53 1010.8
20260506201004 12 43 3.2 11.3 0.00 3.07 0.84 53 1010.6
20260506200503 12 315 4.8 11.3 0.00 3.07 0.84 52 1010.7
20260506200009 12 295 3.2 11.3 0.00 3.07 0.84 53 1010.7
20260506195503 12 321 4.8 16.1 0.00 3.07 0.84 55 1010.9
20260506195003 12 322 6.4 16.1 0.00 3.07 0.84 53 1010.8
20260506194513 12 310 4.8 12.9 0.00 3.07 0.84 55 1010.8
20260506194006 12 326 3.2 12.9 0.00 3.07 0.84 54 1010.9
20260506193509 12 288 4.8 14.5 0.00 3.07 0.84 56 1010.9
20260506193018 12 303 6.4 14.5 0.00 3.07 0.84 54 1010.8
20260506192504 12 300 6.4 16.1 0.00 3.07 0.84 53 1010.8
20260506192008 12 303 6.4 16.1 0.00 3.07 0.84 54 1010.8
20260506191524 12 292 6.4 12.9 0.00 3.07 0.84 53 1010.8
20260506191010 12 295 4.8 12.9 0.00 3.07 0.84 54 1010.7
20260506190514 13 51 4.8 14.5 0.00 3.07 0.84 50 1010.6
20260506190010 13 310 4.8 14.5 0.00 3.07 0.84 52 1010.5
20260506185503 13 283 4.8 22.5 0.00 3.07 0.84 52 1010.5
20260506185003 13 311 4.8 22.5 0.00 3.07 0.84 52 1010.5
20260506184516 13 317 6.4 19.3 0.00 3.07 0.84 51 1010.7
20260506184008 13 313 9.7 19.3 0.00 3.07 0.84 53 1010.8
20260506183505 13 339 6.4 14.5 0.00 3.07 0.84 52 1010.6
20260506183018 13 356 4.8 14.5 0.00 3.07 0.84 54 1010.6
20260506182504 13 329 8.0 22.5 0.00 3.07 0.84 51 1010.8
20260506182009 13 4 6.4 22.5 0.00 3.07 0.84 50 1010.8
20260506181524 13 290 4.8 14.5 0.00 3.07 0.84 52 1010.8
20260506181008 13 331 6.4 14.5 0.00 3.07 0.84 52 1010.7
20260506180507 13 57 4.8 20.9 0.00 3.07 0.84 49 1010.7
20260506180025 13 341 8.0 20.9 0.00 3.07 0.84 50 1010.8
20260506175513 13 339 8.0 16.1 0.00 3.07 0.84 52 1010.8
20260506175013 13 324 8.0 14.5 0.00 3.07 0.84 52 1010.6
20260506174527 14 325 4.8 14.5 0.00 3.07 0.84 51 1010.6
20260506174004 14 314 4.8 16.1 0.00 3.07 0.84 54 1010.7
20260506173505 13 288 6.4 16.1 0.00 3.07 0.84 56 1010.8
20260506173013 13 323 4.8 17.7 0.00 3.07 0.84 56 1010.8
20260506172503 13 314 8.0 17.7 0.00 3.07 0.84 55 1010.8
20260506172003 13 309 8.0 17.7 0.00 3.07 0.84 57 1010.7
20260506171521 13 311 3.2 17.7 0.00 3.07 0.84 56 1010.6
20260506171005 13 302 11.3 17.7 0.00 3.07 0.84 55 1010.5
20260506170505 13 319 6.4 14.5 0.00 3.07 0.84 56 1010.7
20260506170021 13 271 4.8 14.5 0.00 3.07 0.84 62 1010.7
20260506165511 13 359 3.2 14.5 0.00 3.07 0.84 60 1010.7
20260506165006 13 34 6.4 14.5 0.00 3.07 0.84 56 1010.8
20260506164527 13 21 6.4 17.7 0.00 3.07 0.84 56 1010.8
20260506164009 13 314 6.4 17.7 0.00 3.07 0.84 57 1010.8
20260506163507 12 33 9.7 17.7 0.00 3.07 0.84 56 1010.6
20260506163026 13 27 8.0 14.5 0.00 3.07 0.84 55 1010.8
20260506162507 12 315 4.8 16.1 0.00 3.07 0.84 63 1010.9
20260506162004 12 340 8.0 17.7 0.00 3.07 0.84 60 1010.9
20260506161514 12 1 4.8 17.7 0.00 3.07 0.84 61 1010.9
20260506161004 12 93 6.4 17.7 0.00 3.07 0.84 63 1010.7
20260506160504 12 304 3.2 11.3 0.00 3.07 0.84 63 1010.5
20260506160019 12 357 3.2 12.9 0.00 3.07 0.84 63 1010.7
20260506155509 12 299 8.0 12.9 0.00 3.07 0.84 67 1010.6
20260506155005 12 279 0.0 12.9 0.00 3.07 0.84 65 1010.5
20260506154526 11 290 3.2 12.9 0.00 3.07 0.84 64 1010.4
20260506154008 12 40 4.8 14.5 0.00 3.07 0.84 63 1010.2
20260506153510 11 43 3.2 14.5 0.00 3.07 0.84 68 1010.1
20260506153026 11 311 3.2 11.3 0.00 3.07 0.84 67 1010.2
20260506152509 11 37 4.8 12.9 0.00 3.07 0.84 68 1010.1
20260506152010 11 11 3.2 12.9 0.00 3.07 0.84 69 1010.1
20260506151529 11 311 3.2 11.3 0.00 3.07 0.84 67 1010.2
20260506151005 10 311 4.8 16.1 0.00 3.07 0.84 72 1010.1
20260506150504 10 294 8.0 16.1 0.00 3.07 0.84 67 1010.0
20260506150015 10 308 4.8 12.9 0.00 3.07 0.84 69 1010.2
20260506145503 10 325 3.2 12.9 0.00 3.07 0.84 69 1010.2
20260506145006 10 291 3.2 11.3 0.00 3.07 0.84 69 1010.1
20260506144519 10 316 1.6 14.5 0.00 3.07 0.84 70 1010.0
20260506144002 10 298 4.8 14.5 0.00 3.07 0.84 68 1010.0
20260506143504 10 315 3.2 11.3 0.00 3.07 0.84 69 1009.8
20260506143006 10 306 6.4 14.5 0.00 3.07 0.84 70 1009.8
20260506142503 10 352 4.8 14.5 0.00 3.07 0.84 71 1009.7
20260506142001 10 296 3.2 12.9 0.00 3.07 0.84 71 1009.6
20260506141508 10 298 8.0 14.5 0.00 3.07 0.84 68 1009.3
20260506141006 10 288 3.2 14.5 0.00 3.07 0.84 72 1009.3
20260506140505 9 324 4.8 16.1 0.00 3.07 0.84 74 1009.2
20260506140012 9 326 6.4 16.1 0.00 3.07 0.84 72 1009.2
20260506135503 9 309 6.4 16.1 0.00 3.07 0.84 74 1009.2
20260506135012 8 312 6.4 16.1 0.00 3.07 0.84 76 1009.2
20260506134518 8 317 1.6 11.3 0.00 3.07 0.84 79 1009.2
20260506134006 8 314 6.4 16.1 0.00 3.07 0.84 78 1009.2
20260506133507 8 313 3.2 16.1 0.00 3.07 0.84 79 1009.2
20260506133018 8 310 3.2 12.9 0.00 3.07 0.84 80 1009.1
20260506132506 8 295 3.2 11.3 0.00 3.07 0.84 80 1009.2
20260506132006 8 311 3.2 11.3 0.00 3.07 0.84 83 1009.2
20260506131507 7 300 4.8 11.3 0.00 3.07 0.84 83 1009.2
20260506131002 7 25 3.2 9.7 0.00 3.07 0.84 83 1009.1
20260506130502 7 12 3.2 9.7 0.00 3.07 0.84 86 1009.3
20260506130008 7 306 3.2 9.7 0.00 3.07 0.84 85 1009.2
20260506125504 7 297 1.6 8.0 0.00 3.07 0.84 86 1009.1
20260506125003 7 295 3.2 8.0 0.00 3.07 0.84 85 1009.1
20260506124512 7 301 3.2 8.0 0.00 3.07 0.84 85 1009.0
20260506124003 7 316 3.2 6.4 0.00 3.07 0.84 87 1008.8
20260506123505 7 329 1.6 3.2 0.00 3.07 0.84 86 1008.7
20260506123019 7 313 1.6 6.4 0.00 3.07 0.84 86 1008.6
20260506122507 7 323 1.6 6.4 0.00 3.07 0.84 85 1008.6
20260506122008 7 334 1.6 6.4 0.00 3.07 0.84 86 1008.4
20260506121526 6 343 0.0 6.4 0.00 3.07 0.84 86 1008.2
20260506121006 6 311 3.2 8.0 0.00 3.07 0.84 86 1008.3
20260506120507 6 4 3.2 8.0 0.00 3.07 0.84 86 1008.1
20260506120027 6 326 3.2 8.0 0.00 3.07 0.84 86 1008.2
20260506115511 7 301 1.6 6.4 0.00 3.07 0.84 87 1008.2
20260506115003 7 307 1.6 9.7 0.00 3.07 0.84 88 1008.0
20260506114508 7 319 1.6 9.7 0.00 3.07 0.84 88 1007.9
20260506114003 6 306 1.6 8.0 0.00 3.07 0.84 88 1007.6
20260506113503 7 314 1.6 12.9 0.00 3.07 0.84 88 1007.5
20260506113012 7 307 4.8 12.9 0.00 3.07 0.84 88 1007.6
20260506112506 7 308 3.2 9.7 0.00 3.07 0.84 90 1007.3
20260506112007 7 346 3.2 9.7 0.00 3.07 0.84 92 1007.2
20260506111521 7 303 1.6 9.7 0.00 3.07 0.84 93 1007.2
20260506111004 7 339 1.6 9.7 0.00 3.07 0.84 93 1006.9
20260506110507 7 307 3.2 8.0 0.00 3.07 0.84 93 1007.1
20260506110024 7 316 0.0 6.4 0.00 3.07 0.84 93 1007.3
20260506105506 7 23 3.2 6.4 0.00 3.07 0.84 93 1007.5
20260506105009 7 330 3.2 4.8 0.00 3.07 0.84 93 1007.4
20260506104527 7 345 1.6 14.5 0.00 3.07 0.84 93 1007.2
20260506104012 7 306 0.0 14.5 0.00 3.07 0.84 93 1007.0
20260506103508 7 16 1.6 14.5 0.00 3.07 0.84 93 1006.7
20260506103010 7 45 3.2 8.0 0.00 3.07 0.84 93 1006.8
20260506102504 7 27 3.2 14.5 0.00 3.07 0.84 93 1007.1
20260506102003 7 323 4.8 14.5 0.00 3.07 0.84 93 1007.2
20260506101514 7 321 4.8 9.7 0.00 3.07 0.84 93 1007.2
20260506101005 7 329 3.2 9.7 0.00 3.07 0.84 93 1006.8
20260506100504 7 284 3.2 6.4 0.00 3.07 0.84 93 1006.7
20260506100020 7 281 1.6 6.4 0.00 3.07 0.84 93 1006.2
20260506095507 7 323 1.6 6.4 0.03 3.07 0.84 93 1006.3
20260506095008 7 22 1.6 8.0 0.03 3.07 0.84 93 1006.0
20260506094528 7 6 1.6 8.0 0.03 3.07 0.84 93 1005.8
20260506094008 7 293 1.6 9.7 0.05 3.07 0.84 93 1005.9
20260506093507 7 326 1.6 9.7 0.05 3.07 0.84 93 1005.6
20260506093034 7 13 1.6 9.7 0.08 3.07 0.84 93 1005.6
20260506092509 7 18 0.0 9.7 0.10 3.07 0.84 93 1005.5
20260506092010 7 6 1.6 11.3 0.15 3.07 0.84 93 1005.5
20260506091528 7 33 3.2 16.1 0.18 3.07 0.84 93 1005.8
20260506091009 7 16 9.7 16.1 0.20 3.07 0.84 93 1005.8
20260506090502 7 16 1.6 12.9 0.20 3.07 0.84 93 1005.8
20260506090008 7 12 3.2 12.9 0.23 3.07 0.84 93 1005.9
20260506085503 7 343 0.0 12.9 0.20 3.05 0.81 93 1006.0
20260506085002 7 356 4.8 11.3 0.20 3.05 0.81 93 1006.2
20260506084513 7 311 3.2 12.9 0.20 3.05 0.81 93 1006.4
20260506084008 7 308 1.6 14.5 0.18 3.02 0.79 93 1006.3
20260506083503 7 317 4.8 14.5 0.18 3.02 0.79 93 1006.4
20260506083007 7 344 4.8 11.3 0.15 2.97 0.76 93 1006.1
20260506082501 7 25 4.8 17.7 0.15 2.95 0.74 93 1006.1
20260506082001 7 280 6.4 17.7 0.10 2.92 0.69 93 1006.2
20260506081512 7 8 4.8 14.5 0.08 2.90 0.66 93 1006.2
20260506081003 7 328 3.2 17.7 0.08 2.87 0.64 93 1006.0
20260506080503 7 327 3.2 17.7 0.08 2.87 0.64 93 1006.1
20260506073502 7 10 3.2 12.9 0.20 2.84 0.61 94 1005.6
20260506073004 7 21 6.4 12.9 0.23 2.84 0.61 94 1005.4
20260506072502 7 315 1.6 12.9 0.23 2.82 0.58 94 1005.8
20260506072002 7 323 3.2 9.7 0.25 2.82 0.58 94 1005.8
20260506071504 7 300 3.2 9.7 0.28 2.82 0.58 94 1005.9
20260506071003 7 18 3.2 8.0 0.28 2.79 0.56 94 1005.8
20260506070503 7 49 3.2 9.7 0.30 2.79 0.56 94 1005.8
20260506062502 7 14 4.8 16.1 0.23 2.59 0.36 93 1005.8
20260506062002 7 297 4.8 12.9 0.20 2.57 0.33 93 1005.7
20260506061503 7 4 4.8 14.5 0.18 2.54 0.30 93 1005.7
20260506061003 7 308 4.8 19.3 0.18 2.51 0.28 93 1005.7
20260506060505 7 331 6.4 19.3 0.15 2.49 0.25 94 1005.8
20260506051002 8 308 4.8 14.5 0.10 2.34 0.10 93 1006.0
20260506050501 8 329 3.2 14.5 0.10 2.34 0.10 93 1006.1
20260506045004 8 279 1.6 8.0 0.03 2.24 0.00 93 1006.4
20260506044511 8 314 1.6 6.4 0.03 2.24 0.00 93 1006.2
20260506044002 8 314 3.2 6.4 0.03 2.24 0.00 93 1006.1
20260506043505 8 4 3.2 6.4 0.03 2.24 0.00 93 1005.8
20260506043012 8 6 3.2 6.4 0.05 2.24 0.00 93 1006.1
20260506042506 8 34 1.6 4.8 0.05 2.24 0.00 93 1006.0
20260506042007 8 356 0.0 6.4 0.05 2.24 0.00 93 1006.0
20260506041517 8 30 1.6 6.4 0.08 2.24 0.00 93 1005.9
20260506041006 8 82 1.6 6.4 0.10 2.24 0.00 93 1005.9
20260506040507 8 37 1.6 6.4 0.13 2.24 0.00 93 1006.0
20260506040024 8 20 3.2 8.0 0.15 2.24 0.00 93 1006.0
20260506035506 8 23 3.2 8.0 0.18 2.24 2.24 92 1006.1
20260506035010 8 134 0.0 6.4 0.20 2.21 2.21 92 1006.1
20260506034504 8 99 1.6 8.0 0.23 2.21 2.21 92 1006.2
20260506034004 8 23 3.2 12.9 0.25 2.21 2.21 92 1006.5
20260506033502 8 139 1.6 16.1 0.25 2.21 2.21 92 1006.4
20260506033007 8 330 4.8 16.1 0.25 2.18 2.18 92 1006.5
20260506032504 9 17 3.2 14.5 0.28 2.18 2.18 93 1006.6
20260506032003 9 354 4.8 11.3 0.30 2.18 2.18 93 1006.7
20260506031514 9 305 0.0 6.4 0.33 2.16 2.16 93 1006.7
20260506031006 9 290 1.6 9.7 0.33 2.13 2.13 93 1006.8
20260506030506 9 345 3.2 16.1 0.30 2.11 2.11 93 1006.8
20260506030020 9 329 3.2 16.1 0.30 2.08 2.08 93 1007.0
20260506025508 9 287 8.0 16.1 0.33 2.06 2.06 93 1007.1
20260506025007 9 308 3.2 8.0 0.30 2.01 2.01 93 1007.1
20260506024527 9 271 1.6 12.9 0.30 1.98 1.98 93 1007.0
20260506024005 9 46 4.8 14.5 0.30 1.96 1.96 93 1006.9
20260506023507 9 345 3.2 17.7 0.33 1.96 1.96 93 1006.9
20260506023024 10 315 6.4 17.7 0.33 1.93 1.93 92 1006.8
20260506022506 10 328 8.0 12.9 0.36 1.91 1.91 93 1006.8
20260506022004 10 295 3.2 12.9 0.38 1.88 1.88 93 1006.9
20260506021510 10 340 4.8 11.3 0.38 1.83 1.83 93 1006.8
20260506021009 10 18 4.8 17.7 0.38 1.80 1.80 93 1006.8
20260506020507 10 72 4.8 17.7 0.43 1.80 1.80 93 1006.6
20260506020015 10 304 4.8 12.9 0.43 1.78 1.78 93 1006.7
20260506015506 11 328 6.4 12.9 0.41 1.73 1.73 93 1006.7
20260506015008 11 302 4.8 17.7 0.41 1.70 1.70 92 1006.5
20260506014520 11 327 6.4 17.7 0.38 1.68 1.68 91 1006.5
20260506014006 12 289 8.0 17.7 0.41 1.65 1.65 92 1006.2
20260506013505 12 300 4.8 19.3 0.41 1.63 1.63 90 1006.2
20260506013025 13 292 11.3 19.3 0.41 1.60 1.60 90 1006.1
20260506012507 14 264 4.8 12.9 0.38 1.55 1.55 92 1005.9
20260506012013 14 276 3.2 4.8 0.33 1.47 1.47 94 1006.0
20260506011539 14 248 1.6 3.2 0.30 1.45 1.45 94 1006.0
20260506011015 14 219 1.6 3.2 0.30 1.42 1.42 94 1005.9
20260506010509 14 285 0.0 3.2 0.28 1.37 1.37 94 1005.9
20260506010012 14 256 0.0 3.2 0.28 1.32 1.32 94 1005.7
20260506005503 14 283 0.0 6.4 0.28 1.32 1.32 94 1005.7
20260506005004 14 233 0.0 6.4 0.28 1.30 1.30 94 1005.6
20260506004532 14 267 0.0 4.8 0.30 1.30 1.30 93 1005.6
20260506004007 14 231 3.2 6.4 0.28 1.24 1.24 93 1005.8
20260506003507 14 249 3.2 8.0 0.28 1.22 1.22 93 1005.6
20260506003020 14 313 1.6 12.9 0.28 1.19 1.19 93 1005.6
20260506002507 14 219 3.2 12.9 0.28 1.17 1.17 93 1005.5
20260506002009 14 265 1.6 8.0 0.30 1.17 1.17 93 1005.4
20260506001525 14 245 3.2 9.7 0.28 1.14 1.14 93 1005.4
20260506001010 14 227 1.6 9.7 0.28 1.12 1.12 93 1005.4
20260506000502 14 276 1.6 11.3 0.30 1.09 1.09 93 1005.4
20260506000007 14 266 6.4 11.3 0.30 1.07 1.07 93 1005.3
20260505235502 14 276 4.8 11.3 0.30 1.04 1.04 93 1005.4
20260505235005 14 287 3.2 8.0 0.30 1.02 1.02 93 1005.5
20260505234510 14 239 3.2 8.0 0.30 0.99 0.99 93 1005.5
20260505234009 14 328 1.6 6.4 0.30 0.97 0.97 93 1005.6
20260505233506 14 182 1.6 6.4 0.30 0.94 0.94 93 1005.6
20260505233025 14 310 1.6 6.4 0.30 0.91 0.91 93 1005.5
20260505232510 14 234 1.6 4.8 0.28 0.89 0.89 93 1005.6
20260505232003 14 253 0.0 8.0 0.28 0.86 0.86 92 1005.6
20260505231503 14 293 0.0 8.0 0.28 0.86 0.86 92 1005.8
20260505231003 14 252 3.2 11.3 0.25 0.84 0.84 92 1006.1
20260505230503 15 219 3.2 11.3 0.20 0.79 0.79 92 1006.0
20260505230006 15 246 1.6 11.3 0.20 0.76 0.76 92 1006.1
20260505225505 15 274 3.2 9.7 0.20 0.74 0.74 92 1006.0
20260505225003 15 219 1.6 9.7 0.18 0.71 0.71 92 1006.1
20260505224506 15 269 1.6 11.3 0.18 0.69 0.69 92 1006.1
20260505224002 15 315 3.2 11.3 0.15 0.66 0.66 92 1006.1
20260505223505 15 198 0.0 6.4 0.18 0.64 0.64 92 1006.4
20260505223016 15 272 3.2 8.0 0.20 0.61 0.61 91 1006.4
20260505222503 15 264 4.8 11.3 0.23 0.61 0.61 91 1006.5
20260505222005 15 290 4.8 11.3 0.25 0.58 0.58 91 1006.2
20260505221515 15 296 3.2 16.1 0.41 0.58 0.58 91 1006.1
20260505221006 15 264 4.8 16.1 0.53 0.58 0.58 91 1006.2
20260505220507 15 227 3.2 11.3 0.58 0.58 0.58 91 1006.3
20260505220003 15 280 4.8 12.9 0.56 0.56 0.56 91 1006.3
20260505215505 15 264 4.8 12.9 0.53 0.53 0.53 91 1006.0